GIA245 WAHS-WIII

Flight info

Callsign GIA245
Flight time 0h 50m
Altitude 32000
Route KIDET W16 IMU
Aircraft B738/M-SDE2E3FGHIRWXY/LB1

Departure

Time 2026-04-27 14:38
Airport Jenderal Ahmad Yani Airport (WAHS)

Arrival

Time 2026-04-27 15:28
Airport Soekarno-Hatta International Airport (WIII)
Time Latitude Longitude Altitude Speed Heading
2026-04-27 14:18 -6.96717 110.37452 18 ft 0 kts 39°
2026-04-27 14:30 -6.96728 110.37444 18 ft 4 kts 36°
2026-04-27 14:30 -6.96750 110.37429 18 ft 4 kts 23°
2026-04-27 14:31 -6.96775 110.37422 19 ft 4 kts 356°
2026-04-27 14:31 -6.96795 110.37429 18 ft 1 kts 310°
2026-04-27 14:31 -6.96798 110.37433 18 ft 0 kts 310°
2026-04-27 14:33 -6.96794 110.37428 21 ft 2 kts 310°
2026-04-27 14:34 -6.96772 110.37403 18 ft 7 kts 310°
2026-04-27 14:34 -6.96727 110.37350 18 ft 13 kts 310°
2026-04-27 14:34 -6.96661 110.37270 18 ft 17 kts 309°
2026-04-27 14:34 -6.96626 110.37197 18 ft 9 kts 242°
2026-04-27 14:35 -6.96683 110.37142 16 ft 14 kts 220°
2026-04-27 14:35 -6.96773 110.37066 8 ft 19 kts 220°
2026-04-27 14:35 -6.96744 110.36947 5 ft 21 kts 310°
2026-04-27 14:35 -6.96641 110.36827 5 ft 24 kts 310°
2026-04-27 14:36 -6.96525 110.36689 4 ft 27 kts 309°
2026-04-27 14:36 -6.96394 110.36535 4 ft 30 kts 310°
2026-04-27 14:36 -6.96293 110.36385 4 ft 20 kts 284°
2026-04-27 14:36 -6.96242 110.36351 3 ft 5 kts 51°
2026-04-27 14:37 -6.96263 110.36380 4 ft 7 kts 135°
2026-04-27 14:37 -6.96377 110.36514 4 ft 59 kts 130°
2026-04-27 14:37 -6.96807 110.37022 7 ft 128 kts 130°
2026-04-27 14:37 -6.97491 110.37829 261 ft 163 kts 130°
2026-04-27 14:38 -6.98207 110.38736 1002 ft 169 kts 118°
2026-04-27 14:38 -6.98599 110.39858 1781 ft 169 kts 109°
2026-04-27 14:38 -6.99021 110.41036 2210 ft 193 kts 111°
2026-04-27 14:38 -6.99551 110.42384 2439 ft 219 kts 113°
2026-04-27 14:39 -7.00165 110.43869 2672 ft 240 kts 114°
2026-04-27 14:39 -7.00854 110.45489 2936 ft 260 kts 114°
2026-04-27 14:39 -7.01584 110.47179 3656 ft 264 kts 114°
2026-04-27 14:39 -7.02315 110.48877 4483 ft 265 kts 111°
2026-04-27 14:40 -7.02579 110.50715 5222 ft 270 kts 84°
2026-04-27 14:40 -7.01978 110.52510 5972 ft 276 kts 58°
2026-04-27 14:40 -7.00637 110.53862 6687 ft 281 kts 33°
2026-04-27 14:40 -6.98794 110.54619 7395 ft 286 kts 16°
2026-04-27 14:41 -6.96866 110.55074 7821 ft 289 kts 13°
2026-04-27 14:41 -6.94861 110.55494 8377 ft 293 kts 13°
2026-04-27 14:41 -6.92880 110.55910 9094 ft 295 kts 13°
2026-04-27 14:41 -6.90837 110.56347 9811 ft 298 kts 14°
2026-04-27 14:42 -6.88814 110.56789 10347 ft 307 kts 14°
2026-04-27 14:42 -6.86653 110.57269 10493 ft 329 kts 14°
2026-04-27 14:42 -6.84353 110.57784 10726 ft 346 kts 14°
2026-04-27 14:42 -6.81986 110.58314 11217 ft 352 kts 14°
2026-04-27 14:43 -6.79583 110.58853 11848 ft 354 kts 14°
2026-04-27 14:43 -6.77142 110.59271 12462 ft 360 kts
2026-04-27 14:43 -6.74669 110.58847 13079 ft 367 kts 340°
2026-04-27 14:43 -6.72491 110.57492 13714 ft 373 kts 318°
2026-04-27 14:44 -6.70849 110.55455 14257 ft 377 kts 305°
2026-04-27 14:44 -6.69377 110.53257 14835 ft 380 kts 303°
2026-04-27 14:44 -6.67922 110.51018 15410 ft 384 kts 303°
2026-04-27 14:44 -6.66456 110.48763 15969 ft 387 kts 303°
2026-04-27 14:45 -6.64967 110.46495 16535 ft 390 kts 303°
2026-04-27 14:45 -6.63456 110.44214 17101 ft 393 kts 304°
2026-04-27 14:45 -6.61926 110.41920 17643 ft 396 kts 304°
2026-04-27 14:45 -6.60380 110.39611 18180 ft 400 kts 304°
2026-04-27 14:46 -6.58840 110.37316 18637 ft 402 kts 304°
2026-04-27 14:46 -6.57266 110.34972 19124 ft 404 kts 304°
2026-04-27 14:46 -6.55687 110.32621 19616 ft 407 kts 304°
2026-04-27 14:46 -6.54099 110.30255 20066 ft 409 kts 304°
2026-04-27 14:47 -6.52504 110.27877 20548 ft 411 kts 304°
2026-04-27 14:47 -6.50901 110.25492 21015 ft 413 kts 303°
2026-04-27 14:47 -6.49406 110.23018 21448 ft 415 kts 295°
2026-04-27 14:47 -6.48304 110.20334 21888 ft 417 kts 287°
2026-04-27 14:48 -6.47556 110.17512 22329 ft 418 kts 283°
2026-04-27 14:48 -6.46252 110.11774 23182 ft 423 kts 282°
2026-04-27 14:48 -6.45610 110.08878 23566 ft 425 kts 282°
2026-04-27 14:49 -6.44957 110.05970 23884 ft 428 kts 282°
2026-04-27 14:49 -6.44292 110.03046 24195 ft 430 kts 282°
2026-04-27 14:49 -6.43625 110.00148 24524 ft 433 kts 282°
2026-04-27 14:49 -6.42947 109.97225 24837 ft 435 kts 282°
2026-04-27 14:50 -6.42248 109.94225 25153 ft 437 kts 283°
2026-04-27 14:50 -6.41551 109.91237 25457 ft 440 kts 283°
2026-04-27 14:50 -6.40848 109.88233 25763 ft 442 kts 283°
2026-04-27 14:50 -6.40143 109.85214 26073 ft 444 kts 283°
2026-04-27 14:51 -6.39434 109.82185 26365 ft 447 kts 283°
2026-04-27 14:51 -6.38720 109.79133 26651 ft 449 kts 283°
2026-04-27 14:51 -6.38005 109.76075 26940 ft 451 kts 283°
2026-04-27 14:51 -6.37527 109.74032 27130 ft 453 kts 283°
2026-04-27 14:52 -6.36558 109.69890 27497 ft 456 kts 283°
2026-04-27 14:52 -6.35831 109.66784 27762 ft 458 kts 283°
2026-04-27 14:52 -6.35099 109.63654 28051 ft 460 kts 283°
2026-04-27 14:52 -6.34364 109.60516 28313 ft 462 kts 283°
2026-04-27 14:53 -6.33625 109.57362 28574 ft 465 kts 283°
2026-04-27 14:53 -6.32882 109.54189 28830 ft 467 kts 283°
2026-04-27 14:53 -6.32137 109.51009 29100 ft 468 kts 283°
2026-04-27 14:53 -6.31390 109.47822 29373 ft 469 kts 283°
2026-04-27 14:54 -6.30650 109.44665 29624 ft 471 kts 283°
2026-04-27 14:54 -6.29896 109.41452 29874 ft 473 kts 283°
2026-04-27 14:54 -6.29142 109.38236 30108 ft 474 kts 283°
2026-04-27 14:54 -6.28384 109.35009 30409 ft 472 kts 283°
2026-04-27 14:55 -6.27630 109.31794 30750 ft 470 kts 283°
2026-04-27 14:55 -6.26881 109.28606 31107 ft 468 kts 283°
2026-04-27 14:55 -6.26135 109.25430 31420 ft 467 kts 283°
2026-04-27 14:55 -6.25388 109.22251 31705 ft 467 kts 283°
2026-04-27 14:56 -6.24640 109.19068 31882 ft 468 kts 283°
2026-04-27 14:56 -6.23889 109.15874 31870 ft 470 kts 283°
2026-04-27 14:56 -6.22640 109.10563 31873 ft 467 kts 283°
2026-04-27 14:57 -6.21151 109.04234 31880 ft 465 kts 283°
2026-04-27 14:57 -6.19661 108.97905 31893 ft 466 kts 283°
2026-04-27 14:58 -6.18166 108.91556 31889 ft 468 kts 283°
2026-04-27 14:58 -6.16670 108.85210 31881 ft 465 kts 283°
2026-04-27 14:59 -6.15448 108.78825 31890 ft 466 kts 277°
2026-04-27 14:59 -6.14775 108.72342 31889 ft 467 kts 275°
2026-04-27 15:00 -6.14150 108.65849 31883 ft 467 kts 276°
2026-04-27 15:00 -6.13474 108.59355 31884 ft 467 kts 276°
2026-04-27 15:01 -6.12767 108.52873 31885 ft 466 kts 276°
2026-04-27 15:01 -6.12052 108.46411 31882 ft 466 kts 276°
2026-04-27 15:02 -6.11336 108.39940 31881 ft 467 kts 276°
2026-04-27 15:02 -6.10623 108.33486 31887 ft 468 kts 276°
2026-04-27 15:03 -6.09907 108.27004 31881 ft 464 kts 276°
2026-04-27 15:03 -6.09199 108.20603 31887 ft 459 kts 276°
2026-04-27 15:04 -6.08493 108.14222 31624 ft 464 kts 276°
2026-04-27 15:04 -6.08137 108.11008 31229 ft 459 kts 276°
2026-04-27 15:04 -6.07784 108.07830 30786 ft 455 kts 276°
2026-04-27 15:05 -6.07435 108.04685 30342 ft 451 kts 276°
2026-04-27 15:05 -6.07089 108.01563 29869 ft 448 kts 276°
2026-04-27 15:05 -6.06744 107.98462 29331 ft 444 kts 276°
2026-04-27 15:05 -6.06403 107.95393 28827 ft 440 kts 276°
2026-04-27 15:06 -6.06065 107.92350 28338 ft 436 kts 276°
2026-04-27 15:06 -6.05729 107.89332 27866 ft 432 kts 276°
2026-04-27 15:06 -6.05396 107.86338 27399 ft 429 kts 276°
2026-04-27 15:06 -6.05066 107.83376 26938 ft 426 kts 276°
2026-04-27 15:07 -6.04738 107.80425 26481 ft 423 kts 276°
2026-04-27 15:07 -6.04412 107.77506 26027 ft 420 kts 276°
2026-04-27 15:07 -6.04088 107.74597 25545 ft 418 kts 276°
2026-04-27 15:07 -6.03765 107.71702 25094 ft 416 kts 276°
2026-04-27 15:08 -6.03443 107.68817 24627 ft 415 kts 275°
2026-04-27 15:08 -6.03122 107.65943 24167 ft 413 kts 275°
2026-04-27 15:08 -6.02802 107.63074 23709 ft 412 kts 275°
2026-04-27 15:08 -6.02486 107.60247 23214 ft 411 kts 275°
2026-04-27 15:09 -6.02168 107.57400 22718 ft 409 kts 275°
2026-04-27 15:09 -6.01852 107.54575 22252 ft 406 kts 275°
2026-04-27 15:09 -6.01537 107.51767 21803 ft 403 kts 275°
2026-04-27 15:09 -6.01225 107.48981 21358 ft 400 kts 276°
2026-04-27 15:10 -6.00915 107.46215 20920 ft 397 kts 276°
2026-04-27 15:10 -6.00607 107.43463 20472 ft 395 kts 276°
2026-04-27 15:10 -6.00300 107.40722 20028 ft 393 kts 276°
2026-04-27 15:10 -5.99994 107.37999 19575 ft 392 kts 276°
2026-04-27 15:11 -5.99689 107.35281 19136 ft 390 kts 276°
2026-04-27 15:11 -5.99387 107.32583 18695 ft 389 kts 276°
2026-04-27 15:11 -5.99084 107.29891 18254 ft 387 kts 276°
2026-04-27 15:11 -5.98783 107.27208 17874 ft 383 kts 276°
2026-04-27 15:12 -5.98483 107.24546 17331 ft 383 kts 276°
2026-04-27 15:12 -5.98186 107.21899 16899 ft 380 kts 276°
2026-04-27 15:12 -5.97890 107.19272 16459 ft 378 kts 276°
2026-04-27 15:12 -5.97596 107.16662 16038 ft 375 kts 276°
2026-04-27 15:13 -5.97304 107.14068 15694 ft 370 kts 276°
2026-04-27 15:13 -5.97014 107.11492 15192 ft 371 kts 276°
2026-04-27 15:13 -5.96725 107.08928 14767 ft 369 kts 276°
2026-04-27 15:13 -5.96440 107.06401 14371 ft 367 kts 275°
2026-04-27 15:14 -5.96214 107.03858 13947 ft 365 kts 269°
2026-04-27 15:14 -5.96432 107.01354 13578 ft 355 kts 259°
2026-04-27 15:14 -5.96870 106.98935 13056 ft 348 kts 258°
2026-04-27 15:14 -5.97329 106.96555 12644 ft 347 kts 257°
2026-04-27 15:15 -5.97787 106.94177 12222 ft 346 kts 258°
2026-04-27 15:15 -5.98237 106.91810 11876 ft 343 kts 258°
2026-04-27 15:15 -5.98676 106.89462 11477 ft 341 kts 258°
2026-04-27 15:15 -5.99107 106.87125 11081 ft 340 kts 258°
2026-04-27 15:16 -5.99534 106.84796 10683 ft 338 kts 258°
2026-04-27 15:16 -5.99952 106.82508 10288 ft 337 kts 258°
2026-04-27 15:16 -6.00374 106.80195 9907 ft 336 kts 259°
2026-04-27 15:16 -6.00784 106.77934 9913 ft 320 kts 259°
2026-04-27 15:17 -6.01176 106.75773 9843 ft 309 kts 258°
2026-04-27 15:17 -6.01553 106.73701 9743 ft 293 kts 258°
2026-04-27 15:17 -6.01914 106.71712 9414 ft 286 kts 258°
2026-04-27 15:17 -6.02271 106.69746 8951 ft 288 kts 259°
2026-04-27 15:18 -6.02631 106.67771 8662 ft 286 kts 259°
2026-04-27 15:18 -6.02987 106.65812 8413 ft 283 kts 259°
2026-04-27 15:18 -6.03339 106.63872 8131 ft 282 kts 259°
2026-04-27 15:18 -6.03688 106.61950 7961 ft 276 kts 259°
2026-04-27 15:19 -6.04023 106.60101 7838 ft 269 kts 259°
2026-04-27 15:19 -6.04368 106.58278 7709 ft 261 kts 255°
2026-04-27 15:19 -6.04960 106.56552 7530 ft 256 kts 247°
2026-04-27 15:19 -6.05642 106.54935 7285 ft 255 kts 245°
2026-04-27 15:20 -6.06344 106.53294 7040 ft 254 kts 246°
2026-04-27 15:20 -6.07029 106.51662 6793 ft 253 kts 246°
2026-04-27 15:20 -6.07703 106.50026 6548 ft 253 kts 246°
2026-04-27 15:20 -6.08367 106.48396 6310 ft 252 kts 247°
2026-04-27 15:21 -6.09024 106.46772 6084 ft 250 kts 247°
2026-04-27 15:21 -6.09665 106.45185 6005 ft 241 kts 247°
2026-04-27 15:21 -6.10337 106.43662 5815 ft 236 kts 235°
2026-04-27 15:21 -6.11544 106.42599 5552 ft 232 kts 201°
2026-04-27 15:22 -6.13106 106.42323 5304 ft 228 kts 175°
2026-04-27 15:22 -6.14676 106.42522 5060 ft 227 kts 169°
2026-04-27 15:22 -6.16168 106.43003 4776 ft 226 kts 145°
2026-04-27 15:22 -6.17179 106.44134 4661 ft 216 kts 115°
2026-04-27 15:23 -6.17529 106.45535 4587 ft 202 kts 92°
2026-04-27 15:23 -6.17529 106.46896 4500 ft 188 kts 89°
2026-04-27 15:23 -6.17492 106.48183 4322 ft 181 kts 89°
2026-04-27 15:23 -6.17391 106.49446 4020 ft 181 kts 75°
2026-04-27 15:24 -6.16926 106.50621 3742 ft 180 kts 68°
2026-04-27 15:24 -6.16451 106.51782 3460 ft 179 kts 68°
2026-04-27 15:24 -6.15985 106.52944 3142 ft 180 kts 69°
2026-04-27 15:24 -6.15519 106.54109 2842 ft 179 kts 68°
2026-04-27 15:25 -6.15062 106.55251 2536 ft 177 kts 68°
2026-04-27 15:25 -6.14608 106.56387 2256 ft 170 kts 68°
2026-04-27 15:25 -6.14186 106.57445 2073 ft 154 kts 68°
2026-04-27 15:25 -6.13792 106.58433 1719 ft 149 kts 68°
2026-04-27 15:26 -6.13413 106.59381 1301 ft 144 kts 68°
2026-04-27 15:26 -6.13056 106.60272 1003 ft 134 kts 68°
2026-04-27 15:26 -6.12698 106.61148 770 ft 141 kts 67°
2026-04-27 15:26 -6.12316 106.62086 637 ft 148 kts 68°
2026-04-27 15:27 -6.11932 106.63050 387 ft 147 kts 69°
2026-04-27 15:27 -6.11568 106.63994 158 ft 141 kts 68°
2026-04-27 15:27 -6.11214 106.64875 46 ft 127 kts 68°
2026-04-27 15:27 -6.10955 106.65544 42 ft 73 kts 68°
2026-04-27 15:28 -6.10818 106.65889 42 ft 49 kts 68°
2026-04-27 15:28 -6.10691 106.66203 39 ft 42 kts 68°
2026-04-27 15:28 -6.10630 106.66451 38 ft 36 kts 92°
2026-04-27 15:28 -6.10684 106.66657 35 ft 21 kts 133°
2026-04-27 15:29 -6.10799 106.66673 37 ft 13 kts 226°
2026-04-27 15:29 -6.10829 106.66589 36 ft 13 kts 246°
2026-04-27 15:29 -6.10863 106.66510 37 ft 12 kts 246°
2026-04-27 15:29 -6.10894 106.66425 36 ft 15 kts 249°
2026-04-27 15:30 -6.10940 106.66310 36 ft 21 kts 248°
2026-04-27 15:30 -6.11000 106.66159 37 ft 26 kts 248°
2026-04-27 15:30 -6.11070 106.66009 38 ft 20 kts 217°
2026-04-27 15:30 -6.11184 106.66033 36 ft 10 kts 147°
2026-04-27 15:31 -6.11210 106.66074 39 ft 10 kts 110°
2026-04-27 15:31 -6.11247 106.66155 38 ft 15 kts 110°
2026-04-27 15:31 -6.11291 106.66268 38 ft 20 kts 141°
2026-04-27 15:31 -6.11436 106.66329 36 ft 25 kts 158°
2026-04-27 15:32 -6.11576 106.66385 37 ft 18 kts 158°
2026-04-27 15:32 -6.11637 106.66475 37 ft 18 kts 80°
2026-04-27 15:32 -6.11607 106.66556 35 ft 11 kts 68°
2026-04-27 15:32 -6.11588 106.66605 37 ft 4 kts 68°
2026-04-27 15:33 -6.11575 106.66637 37 ft 6 kts 67°
2026-04-27 15:33 -6.11567 106.66657 36 ft 1 kts 74°
2026-04-27 15:33 -6.11570 106.66665 37 ft 2 kts 112°
2026-04-27 15:33 -6.11600 106.66679 37 ft 9 kts 159°
2026-04-27 15:34 -6.11641 106.66695 37 ft 6 kts 165°
2026-04-27 15:34 -6.11647 106.66696 37 ft 0 kts 166°